,,,PA_Meas_PMT16A,,PR_Meas_QMR101_102,,RH_Meas_QMH101,,SR_Meas_QMS101,,TA_Meas_QMH101,,GenWind,,GenWind,
date,time,status,PA,status,PR,status,RH,status,SR,status,TA,status,DirAvg,status,SpdAvg,
2010-04-10, 00:00:05,VALID,999.939,VALID,0,VALID,90.9146,VALID,0,VALID,25.2626,VALID,95,VALID,0,
2010-04-10, 00:01:05,VALID,999.938,VALID,0,VALID,90.9222,VALID,0,VALID,25.2626,VALID,95,VALID,0,
2010-04-10, 00:02:05,VALID,999.935,VALID,0,VALID,90.9451,VALID,0,VALID,25.2217,VALID,95,VALID,0,
2010-04-10, 00:03:05,VALID,999.917,VALID,0,VALID,91.029,VALID,0,VALID,25.2431,VALID,95,VALID,0,
2010-04-10, 00:04:05,VALID,999.949,VALID,0,VALID,90.968,VALID,0,VALID,25.2021,VALID,95,VALID,0.130469,
2010-04-10, 00:05:05,VALID,999.958,VALID,0,VALID,90.8688,VALID,0,VALID,25.2217,VALID,95,VALID,0.290234,
2010-04-10, 00:06:05,VALID,999.969,VALID,0,VALID,90.7314,VALID,0,VALID,25.2021,VALID,95,VALID,0.414453,
2010-04-10, 00:07:05,VALID,999.952,VALID,0,VALID,90.678,VALID,0,VALID,25.2217,VALID,95,VALID,0.408594,
2010-04-10, 00:08:05,VALID,999.959,VALID,0,VALID,90.678,VALID,0,VALID,25.2412,VALID,95,VALID,0.526172,
2010-04-10, 00:09:05,VALID,999.939,VALID,0,VALID,90.5331,VALID,0,VALID,25.2821,VALID,95,VALID,0.451953,
2010-04-10, 00:10:05,VALID,999.938,VALID,0,VALID,90.4491,VALID,0,VALID,25.3017,VALID,95,VALID,0.534766,
2010-04-10, 00:11:05,VALID,999.889,VALID,0,VALID,90.35,VALID,0,VALID,25.3212,VALID,122,VALID,0.834375,
2010-04-10, 00:12:05,VALID,999.905,VALID,0,VALID,90.4491,VALID,0,VALID,25.3212,VALID,132,VALID,0.902734,
2010-04-10, 00:13:05,VALID,999.922,VALID,0,VALID,90.6017,VALID,0,VALID,25.2997,VALID,150,VALID,0.903125,
2010-04-10, 00:14:05,VALID,999.898,VALID,0,VALID,90.7543,VALID,0,VALID,25.3212,VALID,165,VALID,0.932422,
2010-04-10, 00:15:05,VALID,999.877,VALID,0,VALID,90.8611,VALID,0,VALID,25.3602,VALID,165,VALID,0.883203,
2010-04-10, 00:16:05,VALID,999.864,VALID,0,VALID,90.8764,VALID,0,VALID,25.3993,VALID,165,VALID,0.990625,
2010-04-10, 00:17:05,VALID,999.823,VALID,0,VALID,90.823,VALID,0,VALID,25.3973,VALID,164,VALID,0.707812,
2010-04-10, 00:18:05,VALID,999.791,VALID,0,VALID,90.7772,VALID,0,VALID,25.4383,VALID,164,VALID,0.580859,
2010-04-10, 00:19:05,VALID,999.789,VALID,0,VALID,90.6399,VALID,0,VALID,25.4578,VALID,147,VALID,0.741016,
2010-04-10, 00:20:05,VALID,999.751,VALID,0,VALID,90.5483,VALID,0,VALID,25.4774,VALID,144,VALID,0.742188,
2010-04-10, 00:21:05,VALID,999.728,VALID,0,VALID,90.4339,VALID,0,VALID,25.4754,VALID,125,VALID,0.705469,
2010-04-10, 00:22:05,VALID,999.72,VALID,0,VALID,90.3957,VALID,0,VALID,25.4559,VALID,125,VALID,0.621875,
2010-04-10, 00:23:05,VALID,999.7,VALID,0,VALID,90.3576,VALID,0,VALID,25.4559,VALID,125,VALID,0.767187,
2010-04-10, 00:24:05,VALID,999.691,VALID,0,VALID,90.3423,VALID,0,VALID,25.4578,VALID,125,VALID,0.658594,
2010-04-10, 00:25:05,VALID,999.682,VALID,0,VALID,90.3042,VALID,0,VALID,25.4578,VALID,125,VALID,0.566797,
2010-04-10, 00:26:05,VALID,999.671,VALID,0,VALID,90.2889,VALID,0,VALID,25.4383,VALID,125,VALID,0.719922,
2010-04-10, 00:27:05,VALID,999.665,VALID,0,VALID,90.2584,VALID,0,VALID,25.4578,VALID,125,VALID,0.817187,
2010-04-10, 00:28:05,VALID,999.635,VALID,0,VALID,90.2203,VALID,0,VALID,25.4364,VALID,125,VALID,0.699219,
2010-04-10, 00:29:05,VALID,999.612,VALID,0,VALID,90.2889,VALID,0,VALID,25.4578,VALID,125,VALID,0.985547,
2010-04-10, 00:30:05,VALID,999.599,VALID,0,VALID,90.3423,VALID,0,VALID,25.4383,VALID,125,VALID,0.937109,
2010-04-10, 00:31:05,VALID,999.606,VALID,0,VALID,90.4186,VALID,0,VALID,25.4383,VALID,124,VALID,0.621484,
2010-04-10, 00:32:05,VALID,999.59,VALID,0,VALID,90.5178,VALID,0,VALID,25.3973,VALID,124,VALID,0.6375,
2010-04-10, 00:33:05,VALID,999.554,VALID,0,VALID,90.5712,VALID,0,VALID,25.3778,VALID,124,VALID,0.7625,
2010-04-10, 00:34:05,VALID,999.556,VALID,0,VALID,90.5407,VALID,0,VALID,25.3602,VALID,125,VALID,0.579297,
2010-04-10, 00:35:04,VALID,999.556,VALID,0,VALID,90.5254,VALID,0,VALID,25.3193,VALID,125,VALID,0.467578,
2010-04-10, 00:36:04,VALID,999.489,VALID,0,VALID,90.5254,VALID,0,VALID,25.3212,VALID,126,VALID,0.686719,
2010-04-10, 00:37:04,VALID,999.461,VALID,0,VALID,90.5407,VALID,0,VALID,25.3212,VALID,134,VALID,1.18359,
2010-04-10, 00:38:04,VALID,999.453,VALID,0,VALID,90.5407,VALID,0,VALID,25.2997,VALID,132,VALID,1.33008,
2010-04-10, 00:39:04,VALID,999.408,VALID,0,VALID,90.5102,VALID,0,VALID,25.2997,VALID,127,VALID,1.38203,
2010-04-10, 00:40:04,VALID,999.368,VALID,0,VALID,90.5865,VALID,0,VALID,25.2802,VALID,126,VALID,1.22227,
2010-04-10, 00:41:04,VALID,999.35,VALID,0,VALID,90.5712,VALID,0,VALID,25.2821,VALID,119,VALID,1.09219,
2010-04-10, 00:42:04,VALID,999.323,VALID,0,VALID,90.5788,VALID,0,VALID,25.2607,VALID,117,VALID,0.848047,
2010-04-10, 00:43:04,VALID,999.337,VALID,0,VALID,90.762,VALID,0,VALID,25.2217,VALID,106,VALID,1.46484,
2010-04-10, 00:44:04,VALID,999.316,VALID,0,VALID,90.6399,VALID,0,VALID,25.2217,VALID,111,VALID,1.35117,
2010-04-10, 00:45:04,VALID,999.298,VALID,0,VALID,90.6475,VALID,0,VALID,25.2217,VALID,110,VALID,1.42891,
2010-04-10, 00:46:04,VALID,999.319,VALID,0,VALID,90.5712,VALID,0,VALID,25.2431,VALID,109,VALID,1.03281,
2010-04-10, 00:47:04,VALID,999.344,VALID,0,VALID,90.5788,VALID,0,VALID,25.204,VALID,116,VALID,1.27813,
2010-04-10, 00:48:04,VALID,999.357,VALID,0,VALID,90.411,VALID,0,VALID,25.2217,VALID,107,VALID,0.573047,
2010-04-10, 00:49:04,VALID,999.361,VALID,0,VALID,90.0677,VALID,0,VALID,25.2802,VALID,128,VALID,0.953125,
2010-04-10, 00:50:04,VALID,999.337,VALID,0,VALID,89.854,VALID,0,VALID,25.3407,VALID,109,VALID,1.23008,
2010-04-10, 00:51:04,VALID,999.359,VALID,0,VALID,89.732,VALID,0,VALID,25.3602,VALID,112,VALID,1.01641,
2010-04-10, 00:52:04,VALID,999.345,VALID,0,VALID,89.8159,VALID,0,VALID,25.3388,VALID,113,VALID,1.24961,
2010-04-10, 00:53:04,VALID,999.346,VALID,0,VALID,89.8998,VALID,0,VALID,25.3193,VALID,110,VALID,0.526953,
2010-04-10, 00:54:04,VALID,999.347,VALID,0,VALID,89.938,VALID,0,VALID,25.3193,VALID,43,VALID,0.356641,
2010-04-10, 00:55:04,VALID,999.325,VALID,0,VALID,89.9761,VALID,0,VALID,25.2607,VALID,342,VALID,0.854297,
2010-04-10, 00:56:04,VALID,999.313,VALID,0,VALID,90.1058,VALID,0,VALID,25.2431,VALID,349,VALID,1.08477,
2010-04-10, 00:57:04,VALID,999.318,VALID,0,VALID,90.266,VALID,0,VALID,25.2021,VALID,351,VALID,0.561719,
2010-04-10, 00:58:04,VALID,999.308,VALID,0,VALID,90.3271,VALID,0,VALID,25.1631,VALID,354,VALID,0.36875,
2010-04-10, 00:59:04,VALID,999.284,VALID,0,VALID,90.3957,VALID,0,VALID,25.1631,VALID,354,VALID,0,
2010-04-10, 01:00:04,VALID,999.32,VALID,0,VALID,90.3194,VALID,0,VALID,25.1436,VALID,355,VALID,0,
2010-04-10, 01:01:04,VALID,999.318,VALID,0,VALID,90.5788,VALID,0,VALID,25.1241,VALID,108,VALID,0.774219,
2010-04-10, 01:02:04,VALID,999.338,VALID,0,VALID,90.7162,VALID,0,VALID,25.1436,VALID,131,VALID,0.771875,
2010-04-10, 01:03:04,VALID,999.336,VALID,0,VALID,90.5636,VALID,0,VALID,25.1845,VALID,134,VALID,0.701172,
2010-04-10, 01:04:04,VALID,999.324,VALID,0,VALID,90.5865,VALID,0,VALID,25.1845,VALID,134,VALID,0.919531,
2010-04-10, 01:05:04,VALID,999.309,VALID,0,VALID,90.5636,VALID,0,VALID,25.2021,VALID,134,VALID,0.586719,
2010-04-10, 01:06:04,VALID,999.31,VALID,0,VALID,90.3957,VALID,0,VALID,25.2236,VALID,134,VALID,0.923047,
2010-04-10, 01:07:04,VALID,999.261,VALID,0,VALID,90.3347,VALID,0,VALID,25.2217,VALID,130,VALID,1.03828,
2010-04-10, 01:08:04,VALID,999.256,VALID,0,VALID,90.35,VALID,0,VALID,25.2217,VALID,131,VALID,1.06523,
2010-04-10, 01:09:04,VALID,999.197,VALID,0,VALID,90.2279,VALID,0,VALID,25.2217,VALID,133,VALID,0.944531,
2010-04-10, 01:10:04,VALID,999.178,VALID,0,VALID,90.2508,VALID,0,VALID,25.2217,VALID,130,VALID,0.966016,
2010-04-10, 01:11:04,VALID,999.126,VALID,0,VALID,90.1974,VALID,0,VALID,25.2217,VALID,127,VALID,0.880859,
2010-04-10, 01:12:04,VALID,999.084,VALID,0,VALID,90.1897,VALID,0,VALID,25.2431,VALID,128,VALID,0.672266,
2010-04-10, 01:13:04,VALID,999.045,VALID,0,VALID,90.1516,VALID,0,VALID,25.2431,VALID,128,VALID,0.467187,
2010-04-10, 01:14:04,VALID,999.018,VALID,0,VALID,90.1516,VALID,0,VALID,25.2217,VALID,128,VALID,0.210156,
2010-04-10, 01:15:04,VALID,998.979,VALID,0,VALID,90.1592,VALID,0,VALID,25.2236,VALID,128,VALID,0,
2010-04-10, 01:16:04,VALID,998.993,VALID,0,VALID,90.2813,VALID,0,VALID,25.2021,VALID,128,VALID,0.0507813,
2010-04-10, 01:17:04,VALID,998.976,VALID,0,VALID,90.3881,VALID,0,VALID,25.2021,VALID,128,VALID,0,
2010-04-10, 01:18:04,VALID,998.979,VALID,0,VALID,90.4644,VALID,0,VALID,25.2021,VALID,128,VALID,0,
2010-04-10, 01:19:04,VALID,999.002,VALID,0,VALID,90.4873,VALID,0,VALID,25.2021,VALID,128,VALID,0,
2010-04-10, 01:20:04,VALID,998.962,VALID,0,VALID,90.5254,VALID,0,VALID,25.2021,VALID,128,VALID,0,
2010-04-10, 01:21:04,VALID,998.957,VALID,0,VALID,90.6094,VALID,0,VALID,25.2236,VALID,128,VALID,0,
2010-04-10, 01:22:04,VALID,998.949,VALID,0,VALID,90.6094,VALID,0,VALID,25.2021,VALID,128,VALID,0,
2010-04-10, 01:23:04,VALID,998.964,VALID,0,VALID,90.6933,VALID,0,VALID,25.2021,VALID,128,VALID,0,
2010-04-10, 01:24:04,VALID,998.93,VALID,0,VALID,90.6933,VALID,0,VALID,25.2236,VALID,128,VALID,0,
2010-04-10, 01:25:04,VALID,998.919,VALID,0,VALID,90.7314,VALID,0,VALID,25.1826,VALID,128,VALID,0,
2010-04-10, 01:26:04,VALID,998.89,VALID,0,VALID,90.7772,VALID,0,VALID,25.1631,VALID,128,VALID,0,
2010-04-10, 01:27:04,VALID,998.846,VALID,0,VALID,90.8611,VALID,0,VALID,25.1631,VALID,128,VALID,0,
2010-04-10, 01:28:04,VALID,998.84,VALID,0,VALID,90.8917,VALID,0,VALID,25.1436,VALID,128,VALID,0,
2010-04-10, 01:29:04,VALID,998.847,VALID,0,VALID,91.0061,VALID,0,VALID,25.1455,VALID,128,VALID,0,
2010-04-10, 01:30:04,VALID,998.79,VALID,0,VALID,91.0137,VALID,0,VALID,25.1436,VALID,128,VALID,0,
2010-04-10, 01:31:04,VALID,998.801,VALID,0,VALID,91.0519,VALID,0,VALID,25.1455,VALID,128,VALID,0,
2010-04-10, 01:32:04,VALID,998.78,VALID,0,VALID,90.9603,VALID,0,VALID,25.1436,VALID,98,VALID,0,
2010-04-10, 01:33:04,VALID,998.779,VALID,0,VALID,90.8306,VALID,0,VALID,25.1455,VALID,20,VALID,0,
2010-04-10, 01:34:04,VALID,998.758,VALID,0,VALID,91.0214,VALID,0,VALID,25.126,VALID,359,VALID,0,
2010-04-10, 01:35:04,VALID,998.789,VALID,0,VALID,91.0519,VALID,0,VALID,25.126,VALID,359,VALID,0,
2010-04-10, 01:36:04,VALID,998.823,VALID,0,VALID,91.1968,VALID,0,VALID,25.085,VALID,359,VALID,0,
2010-04-10, 01:37:04,VALID,998.803,VALID,0,VALID,91.296,VALID,0,VALID,25.126,VALID,359,VALID,0,
2010-04-10, 01:38:04,VALID,998.805,VALID,0,VALID,91.3952,VALID,0,VALID,25.1064,VALID,359,VALID,0,
2010-04-10, 01:39:04,VALID,998.855,VALID,0,VALID,91.5478,VALID,0,VALID,25.1064,VALID,343,VALID,0.701953,
2010-04-10, 01:40:04,VALID,998.855,VALID,0,VALID,91.6317,VALID,0,VALID,25.1241,VALID,341,VALID,0.824609,
2010-04-10, 01:41:04,VALID,998.836,VALID,0,VALID,91.6928,VALID,0,VALID,25.1455,VALID,342,VALID,0.968359,
2010-04-10, 01:42:04,VALID,998.843,VALID,0,VALID,91.6775,VALID,0,VALID,25.1436,VALID,357,VALID,1.16758,
2010-04-10, 01:43:04,VALID,998.845,VALID,0.5,VALID,91.7309,VALID,0,VALID,25.1436,VALID,356,VALID,0.703516,
2010-04-10, 01:44:04,VALID,998.783,VALID,0,VALID,91.8454,VALID,0,VALID,25.165,VALID,328,VALID,0.372266,
2010-04-10, 01:45:04,VALID,998.732,VALID,0.5,VALID,91.1892,VALID,0,VALID,25.0869,VALID,306,VALID,0.708984,
2010-04-10, 01:46:04,VALID,998.732,VALID,0,VALID,90.8383,VALID,0,VALID,25.1455,VALID,338,VALID,0.219531,
2010-04-10, 01:47:04,VALID,998.694,VALID,0,VALID,91.1892,VALID,0,VALID,25.204,VALID,38,VALID,0.497656,
2010-04-10, 01:48:04,VALID,998.673,VALID,0,VALID,90.884,VALID,0,VALID,25.165,VALID,353,VALID,0.776563,
2010-04-10, 01:49:04,VALID,998.656,VALID,0,VALID,90.9527,VALID,0,VALID,25.204,VALID,348,VALID,1.02383,
2010-04-10, 01:50:04,VALID,998.654,VALID,0,VALID,90.9069,VALID,0,VALID,25.2236,VALID,312,VALID,0.448047,
2010-04-10, 01:51:04,VALID,998.661,VALID,0,VALID,90.7925,VALID,0,VALID,25.2236,VALID,350,VALID,0.385156,
2010-04-10, 01:52:04,VALID,998.654,VALID,0,VALID,90.6323,VALID,0,VALID,25.204,VALID,5,VALID,0.230469,
2010-04-10, 01:53:04,VALID,998.63,VALID,0,VALID,90.6017,VALID,0,VALID,25.2431,VALID,359,VALID,0.270312,
2010-04-10, 01:54:04,VALID,998.63,VALID,0,VALID,90.5102,VALID,0,VALID,25.2236,VALID,3,VALID,0.442187,
2010-04-10, 01:55:04,VALID,998.631,VALID,0,VALID,90.35,VALID,0,VALID,25.2236,VALID,22,VALID,0.719141,
2010-04-10, 01:56:04,VALID,998.614,VALID,0,VALID,90.2889,VALID,0,VALID,25.2236,VALID,23,VALID,0.454297,
2010-04-10, 01:57:04,VALID,998.614,VALID,0,VALID,90.3652,VALID,0,VALID,25.2236,VALID,48,VALID,0.619531,
2010-04-10, 01:58:04,VALID,998.575,VALID,0,VALID,90.4415,VALID,0,VALID,25.245,VALID,62,VALID,0.704297,
2010-04-10, 01:59:04,VALID,998.562,VALID,0,VALID,90.411,VALID,0,VALID,25.2431,VALID,72,VALID,0.652344,
2010-04-10, 02:00:04,VALID,998.528,VALID,0,VALID,90.3347,VALID,0,VALID,25.2431,VALID,75,VALID,0.549219,
2010-04-10, 02:01:04,VALID,998.526,VALID,0,VALID,90.2355,VALID,0,VALID,25.2236,VALID,77,VALID,0.545313,
2010-04-10, 02:02:04,VALID,998.51,VALID,0,VALID,90.2279,VALID,0,VALID,25.2236,VALID,106,VALID,0.814062,
2010-04-10, 02:03:04,VALID,998.512,VALID,0,VALID,90.1363,VALID,0,VALID,25.2236,VALID,108,VALID,0.657031,
2010-04-10, 02:04:04,VALID,998.501,VALID,0,VALID,90.0677,VALID,0,VALID,25.2236,VALID,108,VALID,0.300781,
2010-04-10, 02:05:04,VALID,998.524,VALID,0,VALID,89.9151,VALID,0,VALID,25.2236,VALID,91,VALID,0.69375,
2010-04-10, 02:06:04,VALID,998.51,VALID,0,VALID,89.8006,VALID,0,VALID,25.2217,VALID,80,VALID,0.386719,
2010-04-10, 02:07:04,VALID,998.514,VALID,0,VALID,89.7091,VALID,0,VALID,25.2626,VALID,80,VALID,0,
2010-04-10, 02:08:04,VALID,998.51,VALID,0,VALID,89.5183,VALID,0,VALID,25.2431,VALID,80,VALID,0,
2010-04-10, 02:09:04,VALID,998.507,VALID,0,VALID,89.4726,VALID,0,VALID,25.2217,VALID,80,VALID,0,
2010-04-10, 02:10:04,VALID,998.498,VALID,0,VALID,89.587,VALID,0,VALID,25.2431,VALID,80,VALID,0,
2010-04-10, 02:11:04,VALID,998.499,VALID,0,VALID,89.7854,VALID,0,VALID,25.2236,VALID,80,VALID,0,
2010-04-10, 02:12:04,VALID,998.482,VALID,0,VALID,89.9685,VALID,0,VALID,25.2236,VALID,80,VALID,0,
2010-04-10, 02:13:04,VALID,998.454,VALID,0,VALID,89.9151,VALID,0,VALID,25.1845,VALID,42,VALID,0.392188,
2010-04-10, 02:14:04,VALID,998.409,VALID,0,VALID,89.2284,VALID,0,VALID,25.1455,VALID,63,VALID,0.653906,
2010-04-10, 02:15:04,VALID,998.391,VALID,0,VALID,89.6175,VALID,0,VALID,25.2236,VALID,73,VALID,0.551172,
2010-04-10, 02:16:04,VALID,998.382,VALID,0,VALID,89.5641,VALID,0,VALID,25.2607,VALID,82,VALID,0.601953,
2010-04-10, 02:17:04,VALID,998.356,VALID,0,VALID,89.9303,VALID,0,VALID,25.2802,VALID,84,VALID,0.742969,
2010-04-10, 02:18:04,VALID,998.348,VALID,0,VALID,90.1287,VALID,0,VALID,25.2607,VALID,84,VALID,0.702734,
2010-04-10, 02:19:04,VALID,998.357,VALID,0,VALID,89.9761,VALID,0,VALID,25.2607,VALID,84,VALID,0.693359,
2010-04-10, 02:20:04,VALID,998.332,VALID,0,VALID,90.0219,VALID,0,VALID,25.2607,VALID,90,VALID,0.853516,
2010-04-10, 02:21:04,VALID,998.353,VALID,0,VALID,90.1363,VALID,0,VALID,25.2607,VALID,104,VALID,0.998438,
2010-04-10, 02:22:04,VALID,998.349,VALID,0,VALID,90.2126,VALID,0,VALID,25.2412,VALID,118,VALID,1.0793,
2010-04-10, 02:23:04,VALID,998.36,VALID,0,VALID,90.4415,VALID,0,VALID,25.1631,VALID,127,VALID,1.08906,
2010-04-10, 02:24:04,VALID,998.317,VALID,0,VALID,90.7085,VALID,0,VALID,25.1241,VALID,130,VALID,1.1125,
2010-04-10, 02:25:04,VALID,998.325,VALID,0,VALID,90.9832,VALID,0,VALID,25.085,VALID,129,VALID,1.07617,
2010-04-10, 02:26:04,VALID,998.28,VALID,0,VALID,91.2045,VALID,0,VALID,25.005,VALID,131,VALID,1.23125,
2010-04-10, 02:27:04,VALID,998.294,VALID,0,VALID,91.3876,VALID,0,VALID,24.9874,VALID,132,VALID,0.895312,
2010-04-10, 02:28:04,VALID,998.293,VALID,0,VALID,91.6241,VALID,0,VALID,24.9679,VALID,137,VALID,1.01211,
2010-04-10, 02:29:04,VALID,998.254,VALID,0,VALID,91.7462,VALID,0,VALID,24.9484,VALID,146,VALID,1.0168,
2010-04-10, 02:30:04,VALID,998.261,VALID,0,VALID,91.8454,VALID,0,VALID,24.9289,VALID,139,VALID,1.06875,
2010-04-10, 02:31:04,VALID,998.26,VALID,0,VALID,91.9293,VALID,0,VALID,24.9112,VALID,140,VALID,1.01484,
2010-04-10, 02:32:04,VALID,998.265,VALID,0,VALID,91.9903,VALID,0,VALID,24.9112,VALID,137,VALID,0.847656,
2010-04-10, 02:33:04,VALID,998.26,VALID,0,VALID,91.998,VALID,0,VALID,24.9112,VALID,139,VALID,0.863281,
2010-04-10, 02:34:04,VALID,998.289,VALID,0,VALID,92.0666,VALID,0,VALID,24.8703,VALID,135,VALID,0.779688,
2010-04-10, 02:35:04,VALID,998.226,VALID,0,VALID,92.0743,VALID,0,VALID,24.8917,VALID,136,VALID,0.891016,
2010-04-10, 02:36:04,VALID,998.225,VALID,0,VALID,92.1582,VALID,0,VALID,24.8722,VALID,126,VALID,1.69805,
2010-04-10, 02:37:04,VALID,998.267,VALID,0,VALID,92.1658,VALID,0,VALID,24.8722,VALID,117,VALID,1.27734,
2010-04-10, 02:38:04,VALID,998.276,VALID,0,VALID,92.1658,VALID,0,VALID,24.8313,VALID,118,VALID,1.25117,
2010-04-10, 02:39:04,VALID,998.264,VALID,0,VALID,92.204,VALID,0,VALID,24.8722,VALID,111,VALID,1.33555,
2010-04-10, 02:40:04,VALID,998.285,VALID,0,VALID,92.2345,VALID,0,VALID,24.8508,VALID,105,VALID,1.09336,
2010-04-10, 02:41:04,VALID,998.281,VALID,0,VALID,92.2726,VALID,0,VALID,24.8508,VALID,104,VALID,0.905469,
2010-04-10, 02:42:04,VALID,998.246,VALID,0,VALID,92.2574,VALID,0,VALID,24.8722,VALID,112,VALID,0.885156,
2010-04-10, 02:43:04,VALID,998.228,VALID,0,VALID,92.2268,VALID,0,VALID,24.8917,VALID,110,VALID,0.973437,
2010-04-10, 02:44:04,VALID,998.237,VALID,0,VALID,92.2345,VALID,0,VALID,24.8917,VALID,114,VALID,0.827734,
2010-04-10, 02:45:04,VALID,998.231,VALID,0,VALID,92.2192,VALID,0,VALID,24.8917,VALID,104,VALID,0,
2010-04-10, 02:46:04,VALID,998.181,VALID,0,VALID,92.2268,VALID,0,VALID,24.9308,VALID,56,VALID,0,
2010-04-10, 02:47:04,VALID,998.196,VALID,0,VALID,92.1582,VALID,0,VALID,24.9308,VALID,16,VALID,0.827344,
2010-04-10, 02:48:04,VALID,998.202,VALID,0,VALID,92.059,VALID,0,VALID,24.9308,VALID,28,VALID,0.887891,
2010-04-10, 02:49:04,VALID,998.201,VALID,0,VALID,91.9903,VALID,0,VALID,24.8917,VALID,27,VALID,1.0293,
2010-04-10, 02:50:04,VALID,998.221,VALID,0,VALID,91.9674,VALID,0,VALID,24.8917,VALID,26,VALID,0.561719,
2010-04-10, 02:51:04,VALID,998.199,VALID,0,VALID,91.9903,VALID,0,VALID,24.8917,VALID,29,VALID,0,
2010-04-10, 02:52:04,VALID,998.187,VALID,0,VALID,91.9369,VALID,0,VALID,24.8917,VALID,89,VALID,0.639063,
2010-04-10, 02:53:04,VALID,998.201,VALID,0,VALID,91.9064,VALID,0,VALID,24.8917,VALID,96,VALID,0.616016,
2010-04-10, 02:54:04,VALID,998.177,VALID,0,VALID,91.8911,VALID,0,VALID,24.8917,VALID,77,VALID,0.431641,
2010-04-10, 02:55:04,VALID,998.184,VALID,0,VALID,91.8683,VALID,0,VALID,24.8722,VALID,74,VALID,0.0789063,
2010-04-10, 02:56:04,VALID,998.219,VALID,0,VALID,91.8988,VALID,0,VALID,24.8917,VALID,28,VALID,0.450781,
2010-04-10, 02:57:04,VALID,998.204,VALID,0,VALID,91.9598,VALID,0,VALID,24.8917,VALID,3,VALID,0.283984,
2010-04-10, 02:58:04,VALID,998.215,VALID,0,VALID,91.998,VALID,0,VALID,24.8722,VALID,3,VALID,0,
2010-04-10, 02:59:04,VALID,998.235,VALID,0,VALID,92.0437,VALID,0,VALID,24.8527,VALID,3,VALID,0,
2010-04-10, 03:00:04,VALID,998.241,VALID,0,VALID,92.0743,VALID,0,VALID,24.8332,VALID,3,VALID,0,
2010-04-10, 03:01:04,VALID,998.236,VALID,0,VALID,92.12,VALID,0,VALID,24.8117,VALID,3,VALID,0,
2010-04-10, 03:02:04,VALID,998.25,VALID,0,VALID,92.1582,VALID,0,VALID,24.8117,VALID,3,VALID,0,
2010-04-10, 03:03:04,VALID,998.257,VALID,0,VALID,92.204,VALID,0,VALID,24.8117,VALID,3,VALID,0,
2010-04-10, 03:04:04,VALID,998.256,VALID,0,VALID,92.265,VALID,0,VALID,24.8117,VALID,3,VALID,0,
2010-04-10, 03:05:04,VALID,998.268,VALID,0,VALID,92.2726,VALID,0,VALID,24.8117,VALID,3,VALID,0.096875,
2010-04-10, 03:06:04,VALID,998.315,VALID,0,VALID,92.3108,VALID,0,VALID,24.7922,VALID,83,VALID,0,
2010-04-10, 03:07:04,VALID,998.289,VALID,0,VALID,92.2879,VALID,0,VALID,24.8117,VALID,135,VALID,0.643359,
2010-04-10, 03:08:04,VALID,998.305,VALID,0,VALID,92.2345,VALID,0,VALID,24.7727,VALID,136,VALID,1.16953,
2010-04-10, 03:09:04,VALID,998.295,VALID,0,VALID,92.1582,VALID,0,VALID,24.7922,VALID,135,VALID,0.919141,
2010-04-10, 03:10:04,VALID,998.263,VALID,0,VALID,92.2421,VALID,0,VALID,24.7922,VALID,145,VALID,1.15273,
2010-04-10, 03:11:04,VALID,998.269,VALID,0,VALID,92.2192,VALID,0,VALID,24.8117,VALID,154,VALID,1.19492,
2010-04-10, 03:12:04,VALID,998.234,VALID,0,VALID,92.1353,VALID,0,VALID,24.8099,VALID,151,VALID,1.175,
2010-04-10, 03:13:04,VALID,998.248,VALID,0,VALID,92.0361,VALID,0,VALID,24.8508,VALID,140,VALID,1.01055,
2010-04-10, 03:14:04,VALID,998.247,VALID,0,VALID,92.0132,VALID,0,VALID,24.8508,VALID,151,VALID,0.635547,
2010-04-10, 03:15:04,VALID,998.192,VALID,0,VALID,92.0285,VALID,0,VALID,24.8703,VALID,169,VALID,0.819531,
2010-04-10, 03:16:04,VALID,998.166,VALID,0,VALID,91.998,VALID,0,VALID,24.8722,VALID,173,VALID,1.10391,
2010-04-10, 03:17:04,VALID,998.155,VALID,0,VALID,91.9445,VALID,0,VALID,24.8917,VALID,190,VALID,0.945703,
2010-04-10, 03:18:04,VALID,998.137,VALID,0,VALID,91.8148,VALID,0,VALID,24.8703,VALID,192,VALID,0.526563,
2010-04-10, 03:19:04,VALID,998.131,VALID,0,VALID,91.7996,VALID,0,VALID,24.8703,VALID,192,VALID,0.540625,
2010-04-10, 03:20:04,VALID,998.14,VALID,0,VALID,91.7691,VALID,0,VALID,24.8898,VALID,192,VALID,0,
2010-04-10, 03:21:04,VALID,998.167,VALID,0,VALID,91.5936,VALID,0,VALID,24.9112,VALID,157,VALID,0.875781,
2010-04-10, 03:22:04,VALID,998.15,VALID,0,VALID,91.5402,VALID,0,VALID,24.8917,VALID,159,VALID,0.739844,
2010-04-10, 03:23:04,VALID,998.18,VALID,0,VALID,91.4181,VALID,0,VALID,24.8703,VALID,149,VALID,0.938672,
2010-04-10, 03:24:04,VALID,998.204,VALID,0,VALID,91.4181,VALID,0,VALID,24.8917,VALID,137,VALID,0.548828,
2010-04-10, 03:25:04,VALID,998.237,VALID,0,VALID,91.2884,VALID,0,VALID,24.8508,VALID,144,VALID,0.828516,
2010-04-10, 03:26:04,VALID,998.24,VALID,0,VALID,91.3037,VALID,0,VALID,24.8527,VALID,147,VALID,0.848437,
2010-04-10, 03:27:04,VALID,998.253,VALID,0,VALID,91.5478,VALID,0,VALID,24.8527,VALID,154,VALID,0.965234,
2010-04-10, 03:28:04,VALID,998.277,VALID,0,VALID,91.5249,VALID,0,VALID,24.8527,VALID,153,VALID,0.926562,
2010-04-10, 03:29:04,VALID,998.242,VALID,0,VALID,91.3952,VALID,0,VALID,24.8527,VALID,150,VALID,0.939453,
2010-04-10, 03:30:04,VALID,998.213,VALID,0,VALID,91.38,VALID,0,VALID,24.8527,VALID,145,VALID,0.862109,
2010-04-10, 03:31:04,VALID,998.197,VALID,0,VALID,91.3723,VALID,0,VALID,24.8332,VALID,147,VALID,1.15273,
2010-04-10, 03:32:04,VALID,998.2,VALID,0,VALID,91.3952,VALID,0,VALID,24.7922,VALID,150,VALID,1.08203,
2010-04-10, 03:33:04,VALID,998.183,VALID,0,VALID,91.4486,VALID,0,VALID,24.8332,VALID,149,VALID,1.25391,
2010-04-10, 03:34:04,VALID,998.174,VALID,0,VALID,91.4257,VALID,0,VALID,24.8527,VALID,146,VALID,0.841406,
2010-04-10, 03:35:04,VALID,998.134,VALID,0,VALID,91.4791,VALID,0,VALID,24.8117,VALID,150,VALID,1.02305,
2010-04-10, 03:36:04,VALID,998.149,VALID,0,VALID,91.5249,VALID,0,VALID,24.8136,VALID,152,VALID,0.619531,
2010-04-10, 03:37:04,VALID,998.174,VALID,0,VALID,91.5097,VALID,0,VALID,24.8136,VALID,163,VALID,1.16328,
2010-04-10, 03:38:04,VALID,998.173,VALID,0,VALID,91.5402,VALID,0,VALID,24.7941,VALID,163,VALID,0.820703,
2010-04-10, 03:39:04,VALID,998.175,VALID,0,VALID,91.7004,VALID,0,VALID,24.7746,VALID,163,VALID,0.760156,
2010-04-10, 03:40:04,VALID,998.19,VALID,0,VALID,91.7309,VALID,0,VALID,24.7746,VALID,163,VALID,0.54375,
2010-04-10, 03:41:04,VALID,998.169,VALID,0,VALID,91.7233,VALID,0,VALID,24.7551,VALID,158,VALID,0.701953,
2010-04-10, 03:42:04,VALID,998.203,VALID,0,VALID,91.7309,VALID,0,VALID,24.7356,VALID,151,VALID,0.533984,
2010-04-10, 03:43:04,VALID,998.204,VALID,0,VALID,91.8148,VALID,0,VALID,24.716,VALID,141,VALID,0.161328,
2010-04-10, 03:44:04,VALID,998.247,VALID,0,VALID,91.9217,VALID,0,VALID,24.7356,VALID,163,VALID,1.00586,
2010-04-10, 03:45:04,VALID,998.279,VALID,0,VALID,91.9293,VALID,0,VALID,24.7551,VALID,167,VALID,0.811328,
2010-04-10, 03:46:04,VALID,998.3,VALID,0,VALID,91.8988,VALID,0,VALID,24.7337,VALID,167,VALID,0.613672,
2010-04-10, 03:47:04,VALID,998.313,VALID,0,VALID,91.9445,VALID,0,VALID,24.7746,VALID,167,VALID,0.735937,
2010-04-10, 03:48:04,VALID,998.335,VALID,0,VALID,91.9751,VALID,0,VALID,24.7746,VALID,167,VALID,0.717578,